TimeEDT,TemperatureF,Dew PointF,Humidity,Sea Level PressureIn,VisibilityMPH,Wind Direction,Wind SpeedMPH,Gust SpeedMPH,PrecipitationIn,Events,Conditions,WindDirDegrees,DateUTC
12:35 AM,69.8,66.2,88,30.11,8.0,Calm,Calm,-,0.00,,Clear,0,2013-10-04 04:35:00
12:55 AM,69.8,66.2,88,30.11,7.0,Calm,Calm,-,0.00,,Clear,0,2013-10-04 04:55:00
1:15 AM,69.8,66.2,88,30.10,5.0,Calm,Calm,-,0.00,,Clear,0,2013-10-04 05:15:00
1:35 AM,69.8,66.2,88,30.10,5.0,Calm,Calm,-,0.00,,Clear,0,2013-10-04 05:35:00
1:55 AM,69.8,66.2,88,30.10,5.0,Calm,Calm,-,0.00,,Clear,0,2013-10-04 05:55:00
2:15 AM,69.8,66.2,88,30.09,4.0,Calm,Calm,-,0.00,,Clear,0,2013-10-04 06:15:00
2:35 AM,68.0,66.2,94,30.09,3.0,Calm,Calm,-,0.00,,Clear,0,2013-10-04 06:35:00
2:55 AM,68.0,64.4,88,30.09,2.5,Calm,Calm,-,0.00,,Clear,0,2013-10-04 06:55:00
3:15 AM,68.0,64.4,88,30.09,4.0,Calm,Calm,-,0.00,,Clear,0,2013-10-04 07:15:00
3:35 AM,69.8,66.2,88,30.09,5.0,Calm,Calm,-,0.00,,Clear,0,2013-10-04 07:35:00
3:55 AM,68.0,66.2,94,30.08,2.5,Calm,Calm,-,0.00,,Clear,0,2013-10-04 07:55:00
4:15 AM,66.2,64.4,94,30.08,1.8,Calm,Calm,-,0.00,,Clear,0,2013-10-04 08:15:00
4:35 AM,68.0,66.2,94,30.08,3.0,Calm,Calm,-,0.00,,Clear,0,2013-10-04 08:35:00
4:55 AM,68.0,66.2,94,30.08,2.5,Calm,Calm,-,0.00,,Clear,0,2013-10-04 08:55:00
5:15 AM,68.0,66.2,94,30.08,3.0,Calm,Calm,-,0.00,,Clear,0,2013-10-04 09:15:00
5:35 AM,69.8,66.2,88,30.09,5.0,Calm,Calm,-,0.00,,Clear,0,2013-10-04 09:35:00
5:55 AM,66.2,64.4,94,30.09,2.0,Calm,Calm,-,0.00,,Clear,0,2013-10-04 09:55:00
6:15 AM,68.0,66.2,94,30.10,5.0,Calm,Calm,-,0.00,,Clear,0,2013-10-04 10:15:00
6:35 AM,68.0,66.2,94,30.10,4.0,Calm,Calm,-,0.00,,Clear,0,2013-10-04 10:35:00
6:55 AM,66.2,64.4,94,30.11,5.0,Calm,Calm,-,0.00,,Clear,0,2013-10-04 10:55:00
7:15 AM,68.0,66.2,94,30.12,4.0,Calm,Calm,-,0.00,,Clear,0,2013-10-04 11:15:00
7:35 AM,68.0,66.2,94,30.12,3.0,Calm,Calm,-,0.00,,Clear,0,2013-10-04 11:35:00
7:55 AM,71.6,68.0,88,30.12,3.0,Calm,Calm,-,0.00,,Clear,0,2013-10-04 11:55:00
8:15 AM,73.4,69.8,88,30.13,4.0,Calm,Calm,-,0.00,,Clear,0,2013-10-04 12:15:00
8:35 AM,75.2,69.8,83,30.14,5.0,Calm,Calm,-,0.00,,Haze,0,2013-10-04 12:35:00
8:55 AM,75.2,71.6,89,30.14,6.0,Calm,Calm,-,0.00,,Clear,0,2013-10-04 12:55:00
9:15 AM,75.2,71.6,89,30.14,10.0,North,5.8,-,0.00,,Clear,350,2013-10-04 13:15:00
9:35 AM,77.0,71.6,83,30.14,10.0,North,6.9,-,0.00,,Clear,350,2013-10-04 13:35:00
9:55 AM,78.8,71.6,78,30.14,10.0,North,5.8,-,0.00,,Clear,360,2013-10-04 13:55:00
10:15 AM,80.6,71.6,74,30.14,10.0,Calm,Calm,-,0.00,,Clear,0,2013-10-04 14:15:00
10:35 AM,82.4,71.6,70,30.14,10.0,NNE,5.8,-,0.00,,Clear,20,2013-10-04 14:35:00
10:55 AM,80.6,69.8,70,30.14,10.0,North,5.8,-,0.00,,Clear,10,2013-10-04 14:55:00
11:15 AM,82.4,68.0,62,30.15,10.0,NNE,5.8,-,0.00,,Partly Cloudy,20,2013-10-04 15:15:00
11:35 AM,82.4,68.0,62,30.14,10.0,NNE,6.9,-,0.00,,Clear,20,2013-10-04 15:35:00
11:55 AM,84.2,68.0,58,30.15,10.0,North,5.8,-,0.00,,Clear,10,2013-10-04 15:55:00
12:15 PM,84.2,68.0,58,30.14,10.0,NNE,6.9,-,0.00,,Clear,30,2013-10-04 16:15:00
12:35 PM,84.2,66.2,55,30.14,10.0,North,6.9,-,0.00,,Clear,360,2013-10-04 16:35:00
12:55 PM,84.2,66.2,55,30.13,10.0,Calm,Calm,-,0.00,,Clear,0,2013-10-04 16:55:00
1:15 PM,84.2,66.2,55,30.12,10.0,NNE,4.6,-,0.00,,Partly Cloudy,20,2013-10-04 17:15:00
1:35 PM,87.8,64.4,46,30.11,10.0,Calm,Calm,-,0.00,,Partly Cloudy,0,2013-10-04 17:35:00
1:55 PM,82.4,64.4,54,30.10,10.0,Calm,Calm,-,0.00,,Clear,0,2013-10-04 17:55:00
2:15 PM,84.2,66.2,55,30.09,10.0,Calm,Calm,-,0.00,,Partly Cloudy,0,2013-10-04 18:15:00
2:35 PM,84.2,68.0,58,30.09,10.0,NE,3.5,-,0.00,,Mostly Cloudy,50,2013-10-04 18:35:00
2:55 PM,82.4,69.8,66,30.09,10.0,ESE,5.8,-,0.00,,Scattered Clouds,110,2013-10-04 18:55:00
3:15 PM,82.4,69.8,66,30.08,10.0,ESE,8.1,-,0.00,,Mostly Cloudy,120,2013-10-04 19:15:00
3:35 PM,80.6,69.8,70,30.08,10.0,ESE,8.1,-,0.00,,Scattered Clouds,120,2013-10-04 19:35:00
3:55 PM,82.4,69.8,66,30.08,10.0,SE,9.2,-,0.00,,Partly Cloudy,130,2013-10-04 19:55:00
4:15 PM,82.4,68.0,62,30.08,10.0,ESE,6.9,-,0.00,,Partly Cloudy,110,2013-10-04 20:15:00
4:35 PM,82.4,69.8,66,30.08,10.0,ESE,5.8,-,0.00,,Partly Cloudy,120,2013-10-04 20:35:00
4:55 PM,82.4,69.8,66,30.07,10.0,ESE,8.1,-,0.00,,Clear,120,2013-10-04 20:55:00
5:15 PM,80.6,69.8,70,30.08,10.0,ESE,4.6,-,0.00,,Clear,110,2013-10-04 21:15:00
5:35 PM,80.6,69.8,70,30.08,10.0,SE,3.5,-,0.00,,Clear,130,2013-10-04 21:35:00
5:55 PM,80.6,69.8,70,30.08,10.0,East,4.6,-,0.00,,Clear,100,2013-10-04 21:55:00
6:15 PM,78.8,69.8,74,30.08,10.0,SE,4.6,-,0.00,,Clear,130,2013-10-04 22:15:00
6:35 PM,77.0,69.8,78,30.09,10.0,Calm,Calm,-,0.00,,Clear,0,2013-10-04 22:35:00
6:55 PM,75.2,69.8,83,30.09,10.0,Calm,Calm,-,0.00,,Clear,0,2013-10-04 22:55:00
7:15 PM,75.2,71.6,89,30.09,10.0,Calm,Calm,-,0.00,,Clear,0,2013-10-04 23:15:00
7:35 PM,73.4,71.6,94,30.09,10.0,Calm,Calm,-,0.00,,Clear,0,2013-10-04 23:35:00
7:55 PM,73.4,69.8,88,30.09,10.0,Calm,Calm,-,0.00,,Clear,0,2013-10-04 23:55:00
8:15 PM,73.4,71.6,94,30.10,10.0,Calm,Calm,-,0.00,,Clear,0,2013-10-05 00:15:00
8:35 PM,73.4,69.8,88,30.10,10.0,Calm,Calm,-,0.00,,Clear,0,2013-10-05 00:35:00
8:55 PM,73.4,69.8,88,30.10,10.0,Calm,Calm,-,0.00,,Clear,0,2013-10-05 00:55:00
9:15 PM,71.6,69.8,94,30.11,10.0,Calm,Calm,-,0.00,,Clear,0,2013-10-05 01:15:00
9:35 PM,71.6,69.8,94,30.11,10.0,Calm,Calm,-,0.00,,Clear,0,2013-10-05 01:35:00
9:55 PM,71.6,69.8,94,30.12,10.0,Calm,Calm,-,0.00,,Clear,0,2013-10-05 01:55:00
10:15 PM,69.8,66.2,88,30.12,10.0,Calm,Calm,-,0.00,,Clear,0,2013-10-05 02:15:00
10:35 PM,69.8,66.2,88,30.12,9.0,Calm,Calm,-,0.00,,Clear,0,2013-10-05 02:35:00
10:55 PM,69.8,66.2,88,30.12,10.0,Calm,Calm,-,0.00,,Clear,0,2013-10-05 02:55:00
11:15 PM,69.8,66.2,88,30.12,5.0,Calm,Calm,-,0.00,,Clear,0,2013-10-05 03:15:00
11:35 PM,69.8,66.2,88,30.12,8.0,Calm,Calm,-,0.00,,Clear,0,2013-10-05 03:35:00
11:55 PM,69.8,66.2,88,30.12,10.0,Calm,Calm,-,0.00,,Clear,0,2013-10-05 03:55:00